| time (UTC) | temp C | wind direction | speed KPH | gust KPH | rain 1hr cm | rain 24hr cm | rain mn cm | humidity % | barometer mb |
| 20260505112721 | 12 | 195 | 6.4 | 8.0 | 0.00 | 0.00 | 0.00 | 68 | 1009.0 |
| 20260505112221 | 12 | 167 | 6.4 | 8.0 | 0.00 | 0.00 | 0.00 | 69 | 1009.0 |
| 20260505111720 | 12 | 172 | 6.4 | 9.7 | 0.00 | 0.00 | 0.00 | 70 | 1009.0 |
| 20260505111220 | 12 | 162 | 9.7 | 12.9 | 0.00 | 0.00 | 0.00 | 70 | 1009.0 |
| 20260505110720 | 12 | 173 | 8.0 | 11.3 | 0.00 | 0.00 | 0.00 | 70 | 1009.0 |
| 20260505110221 | 13 | 159 | 8.0 | 11.3 | 0.00 | 0.00 | 0.00 | 70 | 1009.0 |
| 20260505102220 | 13 | 153 | 9.7 | 11.3 | 0.00 | 0.00 | 0.00 | 63 | 1009.0 |
| 20260505101720 | 13 | 163 | 6.4 | 9.7 | 0.00 | 0.00 | 0.00 | 63 | 1009.0 |
| 20260505101220 | 13 | 171 | 6.4 | 9.7 | 0.00 | 0.00 | 0.00 | 64 | 1009.0 |
| 20260505100720 | 13 | 168 | 6.4 | 8.0 | 0.00 | 0.00 | 0.00 | 65 | 1009.0 |
| 20260505100221 | 13 | 159 | 8.0 | 9.7 | 0.00 | 0.00 | 0.00 | 64 | 1009.0 |
| 20260505095721 | 13 | 159 | 8.0 | 11.3 | 0.00 | 0.00 | 0.00 | 64 | 1009.0 |
| 20260505095221 | 13 | 143 | 9.7 | 12.9 | 0.00 | 0.00 | 0.00 | 65 | 1009.0 |
| 20260505094721 | 13 | 147 | 8.0 | 11.3 | 0.00 | 0.00 | 0.00 | 67 | 1009.0 |
| 20260505094221 | 13 | 146 | 6.4 | 8.0 | 0.00 | 0.00 | 0.00 | 67 | 1009.0 |
| 20260505093720 | 13 | 138 | 4.8 | 6.4 | 0.00 | 0.00 | 0.00 | 67 | 1009.0 |
| 20260505093222 | 13 | 149 | 6.4 | 8.0 | 0.00 | 0.00 | 0.00 | 65 | 1009.0 |
| 20260505092720 | 13 | 154 | 4.8 | 9.7 | 0.00 | 0.00 | 0.00 | 64 | 1009.0 |
| 20260505092220 | 13 | 139 | 4.8 | 8.0 | 0.00 | 0.00 | 0.00 | 64 | 1009.0 |
| 20260505091721 | 13 | 137 | 6.4 | 9.7 | 0.00 | 0.00 | 0.00 | 63 | 1009.0 |
| 20260505091220 | 13 | 149 | 8.0 | 12.9 | 0.00 | 0.00 | 0.00 | 61 | 1009.0 |
| 20260505090720 | 13 | 161 | 3.2 | 6.4 | 0.00 | 0.00 | 0.00 | 62 | 1009.0 |
| 20260505090221 | 13 | 179 | 8.0 | 12.9 | 0.00 | 0.00 | 0.00 | 63 | 1009.0 |
| 20260505085720 | 13 | 175 | 9.7 | 11.3 | 0.00 | 0.00 | 0.00 | 66 | 1009.0 |
| 20260505085220 | 13 | 181 | 6.4 | 11.3 | 0.00 | 0.00 | 0.00 | 66 | 1009.0 |
| 20260505084721 | 13 | 199 | 6.4 | 8.0 | 0.00 | 0.00 | 0.00 | 65 | 1009.0 |
| 20260505084221 | 13 | 146 | 6.4 | 9.7 | 0.00 | 0.00 | 0.00 | 66 | 1009.0 |
| 20260505083720 | 13 | 171 | 6.4 | 9.7 | 0.00 | 0.00 | 0.00 | 66 | 1009.0 |
| 20260505083220 | 13 | 168 | 6.4 | 9.7 | 0.00 | 0.00 | 0.00 | 66 | 1009.0 |
| 20260505082721 | 13 | 138 | 6.4 | 9.7 | 0.00 | 0.00 | 0.00 | 66 | 1009.0 |
| 20260505082220 | 13 | 157 | 4.8 | 6.4 | 0.00 | 0.00 | 0.00 | 66 | 1009.0 |
| 20260505081726 | 13 | 148 | 6.4 | 11.3 | 0.00 | 0.00 | 0.00 | 66 | 1009.0 |
| 20260505081220 | 13 | 145 | 4.8 | 8.0 | 0.00 | 0.00 | 0.00 | 65 | 1009.0 |
| 20260505080721 | 13 | 158 | 9.7 | 14.5 | 0.00 | 0.00 | 0.00 | 65 | 1009.0 |
| 20260505080222 | 13 | 140 | 8.0 | 14.5 | 0.00 | 0.00 | 0.00 | 65 | 1009.0 |
| 20260505075721 | 13 | 163 | 8.0 | 12.9 | 0.00 | 0.00 | 0.00 | 65 | 1009.0 |
| 20260505075222 | 13 | 154 | 8.0 | 11.3 | 0.00 | 0.00 | 0.00 | 65 | 1009.0 |
| 20260505074722 | 13 | 169 | 4.8 | 8.0 | 0.00 | 0.00 | 0.00 | 63 | 1010.0 |
| 20260505074220 | 13 | 182 | 8.0 | 11.3 | 0.00 | 0.00 | 0.00 | 62 | 1009.0 |
| 20260505073722 | 13 | 166 | 6.4 | 9.7 | 0.00 | 0.00 | 0.00 | 62 | 1009.0 |
| 20260505073220 | 13 | 185 | 14.5 | 17.7 | 0.00 | 0.00 | 0.00 | 60 | 1009.0 |
| 20260505072720 | 13 | 175 | 6.4 | 12.9 | 0.00 | 0.00 | 0.00 | 59 | 1010.0 |
| 20260505072221 | 13 | 170 | 9.7 | 12.9 | 0.00 | 0.00 | 0.00 | 57 | 1010.0 |
| 20260505071720 | 13 | 180 | 12.9 | 17.7 | 0.00 | 0.00 | 0.00 | 58 | 1010.0 |
| 20260505071221 | 13 | 163 | 11.3 | 14.5 | 0.00 | 0.00 | 0.00 | 59 | 1010.0 |
| 20260505070720 | 13 | 155 | 12.9 | 16.1 | 0.00 | 0.00 | 0.00 | 59 | 1010.0 |
| 20260505070221 | 13 | 166 | 11.3 | 17.7 | 0.00 | 0.00 | 0.00 | 55 | 1009.0 |
| 20260505065720 | 13 | 158 | 14.5 | 17.7 | 0.00 | 0.00 | 0.00 | 54 | 1009.0 |
| 20260505065221 | 13 | 154 | 12.9 | 17.7 | 0.00 | 0.00 | 0.00 | 54 | 1010.0 |
| 20260505064720 | 13 | 172 | 12.9 | 17.7 | 0.00 | 0.00 | 0.00 | 55 | 1010.0 |
| 20260505064220 | 13 | 179 | 11.3 | 19.3 | 0.00 | 0.00 | 0.00 | 55 | 1010.0 |
| 20260505063721 | 13 | 155 | 14.5 | 20.9 | 0.00 | 0.00 | 0.00 | 57 | 1010.0 |
| 20260505063221 | 13 | 143 | 4.8 | 9.7 | 0.00 | 0.00 | 0.00 | 57 | 1010.0 |
| 20260505062720 | 13 | 144 | 6.4 | 11.3 | 0.00 | 0.00 | 0.00 | 57 | 1010.0 |
| 20260505062222 | 13 | 157 | 8.0 | 11.3 | 0.00 | 0.00 | 0.00 | 57 | 1010.0 |
| 20260505061720 | 13 | 174 | 11.3 | 20.9 | 0.00 | 0.00 | 0.00 | 57 | 1010.0 |
| 20260505061220 | 13 | 179 | 16.1 | 20.9 | 0.00 | 0.00 | 0.00 | 57 | 1010.0 |
| 20260505060720 | 13 | 191 | 11.3 | 19.3 | 0.00 | 0.00 | 0.00 | 58 | 1010.0 |
| 20260505060220 | 13 | 160 | 14.5 | 20.9 | 0.00 | 0.00 | 0.00 | 59 | 1010.0 |
| 20260505055722 | 13 | 191 | 12.9 | 17.7 | 0.00 | 0.00 | 0.00 | 59 | 1010.0 |
| 20260505055222 | 13 | 191 | 11.3 | 17.7 | 0.00 | 0.00 | 0.00 | 59 | 1010.0 |
| 20260505054720 | 13 | 183 | 11.3 | 19.3 | 0.00 | 0.00 | 0.00 | 60 | 1010.0 |
| 20260505054220 | 13 | 174 | 14.5 | 20.9 | 0.00 | 0.00 | 0.00 | 61 | 1010.0 |
| 20260505053720 | 13 | 173 | 14.5 | 19.3 | 0.00 | 0.00 | 0.00 | 60 | 1010.0 |
| 20260505053221 | 13 | 169 | 17.7 | 27.4 | 0.00 | 0.00 | 0.00 | 60 | 1010.0 |
| 20260505052721 | 13 | 169 | 12.9 | 20.9 | 0.15 | 0.00 | 0.00 | 61 | 1010.0 |
| 20260505052220 | 13 | 167 | 8.0 | 14.5 | 0.00 | 0.00 | 0.00 | 61 | 1010.0 |
| 20260505051720 | 13 | 134 | 9.7 | 16.1 | 0.00 | 0.00 | 0.00 | 61 | 1010.0 |
| 20260505051221 | 13 | 161 | 8.0 | 14.5 | 0.00 | 0.00 | 0.00 | 60 | 1010.0 |
| 20260505050720 | 14 | 133 | 11.3 | 17.7 | 0.00 | 0.00 | 0.00 | 60 | 1009.0 |
| 20260505050223 | 14 | 139 | 11.3 | 16.1 | 0.05 | 0.00 | 0.00 | 61 | 1009.0 |
| 20260505041720 | 16 | 177 | 11.3 | 20.9 | 0.00 | 0.00 | 0.00 | 44 | 1009.0 |
| 20260505041221 | 16 | 167 | 8.0 | 14.5 | 0.00 | 0.00 | 0.00 | 42 | 1009.0 |
| 20260505040720 | 16 | 156 | 9.7 | 12.9 | 0.00 | 0.00 | 0.00 | 42 | 1009.0 |
| 20260505040220 | 17 | 166 | 8.0 | 11.3 | 0.00 | 0.00 | 0.00 | 41 | 1008.0 |
| 20260505035720 | 17 | 199 | 11.3 | 14.5 | 0.00 | 0.00 | 0.00 | 40 | 1008.0 |
| 20260505035221 | 16 | 191 | 12.9 | 19.3 | 0.00 | 0.00 | 0.00 | 41 | 1008.0 |
| 20260505034720 | 16 | 191 | 12.9 | 17.7 | 0.00 | 0.00 | 0.00 | 41 | 1008.0 |
| 20260505034221 | 16 | 191 | 12.9 | 16.1 | 0.00 | 0.00 | 0.00 | 41 | 1008.0 |
| 20260505033720 | 16 | 176 | 9.7 | 17.7 | 0.00 | 0.00 | 0.00 | 42 | 1008.0 |
| 20260505033220 | 16 | 181 | 9.7 | 12.9 | 0.00 | 0.00 | 0.00 | 44 | 1008.0 |
| 20260505032721 | 17 | 185 | 9.7 | 16.1 | 0.00 | 0.00 | 0.00 | 45 | 1008.0 |
| 20260505032220 | 17 | 189 | 9.7 | 14.5 | 0.00 | 0.00 | 0.00 | 45 | 1008.0 |
| 20260505031720 | 17 | 183 | 11.3 | 19.3 | 0.00 | 0.00 | 0.00 | 46 | 1008.0 |
| 20260505031220 | 17 | 182 | 12.9 | 20.9 | 0.00 | 0.00 | 0.00 | 43 | 1008.0 |
| 20260505030721 | 17 | 185 | 12.9 | 17.7 | 0.00 | 0.00 | 0.00 | 40 | 1008.0 |
| 20260505030220 | 17 | 179 | 14.5 | 16.1 | 0.00 | 0.00 | 0.00 | 41 | 1008.0 |
| 20260505025720 | 17 | 169 | 11.3 | 19.3 | 0.00 | 0.00 | 0.00 | 41 | 1008.0 |
| 20260505025222 | 17 | 171 | 11.3 | 16.1 | 0.00 | 0.00 | 0.00 | 41 | 1008.0 |
| 20260505024720 | 17 | 175 | 9.7 | 17.7 | 0.00 | 0.00 | 0.00 | 42 | 1007.0 |
| 20260505024220 | 17 | 170 | 12.9 | 20.9 | 0.00 | 0.00 | 0.00 | 41 | 1007.0 |
| 20260505023720 | 17 | 176 | 9.7 | 16.1 | 0.00 | 0.00 | 0.00 | 41 | 1007.0 |
| 20260505023222 | 18 | 166 | 9.7 | 17.7 | 0.00 | 0.00 | 0.00 | 42 | 1007.0 |
| 20260505022724 | 18 | 182 | 12.9 | 17.7 | 0.00 | 0.00 | 0.00 | 42 | 1007.0 |
| 20260505022222 | 18 | 177 | 11.3 | 20.9 | 0.00 | 0.00 | 0.00 | 42 | 1007.0 |
| 20260505021721 | 18 | 181 | 8.0 | 16.1 | 0.00 | 0.00 | 0.00 | 39 | 1007.0 |
| 20260505021221 | 18 | 164 | 11.3 | 14.5 | 0.00 | 0.00 | 0.00 | 37 | 1007.0 |
| 20260505020720 | 18 | 159 | 14.5 | 19.3 | 0.00 | 0.00 | 0.00 | 37 | 1007.0 |
| 20260505020220 | 18 | 172 | 8.0 | 12.9 | 0.00 | 0.00 | 0.00 | 37 | 1007.0 |
| 20260505015721 | 18 | 167 | 12.9 | 20.9 | 0.00 | 0.00 | 0.00 | 36 | 1007.0 |
| 20260505015220 | 18 | 169 | 8.0 | 12.9 | 0.00 | 0.00 | 0.00 | 37 | 1007.0 |
| 20260505014720 | 18 | 158 | 16.1 | 20.9 | 0.00 | 0.00 | 0.00 | 37 | 1007.0 |
| 20260505014220 | 18 | 155 | 12.9 | 17.7 | 0.00 | 0.00 | 0.00 | 37 | 1007.0 |
| 20260505013720 | 18 | 158 | 14.5 | 17.7 | 0.00 | 0.00 | 0.00 | 37 | 1007.0 |
| 20260505013220 | 19 | 166 | 8.0 | 9.7 | 0.00 | 0.00 | 0.00 | 37 | 1007.0 |
| 20260505012720 | 20 | 157 | 14.5 | 17.7 | 0.00 | 0.00 | 0.00 | 36 | 1007.0 |
| 20260505012220 | 20 | 156 | 8.0 | 12.9 | 0.00 | 0.00 | 0.00 | 31 | 1007.0 |
| 20260505011720 | 20 | 217 | 4.8 | 6.4 | 0.00 | 0.00 | 0.00 | 30 | 1007.0 |
| 20260505011220 | 21 | 233 | 1.6 | 3.2 | 0.00 | 0.00 | 0.00 | 29 | 1007.0 |
| 20260505010723 | 21 | 66 | 3.2 | 3.2 | 0.00 | 0.00 | 0.00 | 29 | 1007.0 |
| 20260505010221 | 21 | 0 | 0.0 | 0.0 | 0.00 | 0.00 | 0.00 | 29 | 1007.0 |
| 20260505005725 | 21 | 96 | 3.2 | 3.2 | 0.00 | 0.00 | 0.00 | 30 | 1007.0 |
| 20260505005221 | 21 | 0 | 0.0 | 0.0 | 0.00 | 0.00 | 0.00 | 29 | 1007.0 |
| 20260505004721 | 21 | 0 | 0.0 | 0.0 | 0.00 | 0.00 | 0.00 | 29 | 1007.0 |
| 20260505004220 | 21 | 0 | 0.0 | 0.0 | 0.00 | 0.00 | 0.00 | 30 | 1007.0 |
| 20260505003720 | 20 | 0 | 0.0 | 0.0 | 0.00 | 0.00 | 0.00 | 31 | 1007.0 |
| 20260505003220 | 20 | 0 | 0.0 | 0.0 | 0.00 | 0.00 | 0.00 | 31 | 1007.0 |
| 20260505002720 | 20 | 0 | 0.0 | 0.0 | 0.00 | 0.00 | 0.00 | 30 | 1007.0 |
| 20260505002220 | 20 | 96 | 1.6 | 3.2 | 0.00 | 0.00 | 0.00 | 31 | 1007.0 |
| 20260505001720 | 20 | 142 | 6.4 | 8.0 | 0.00 | 0.00 | 0.00 | 31 | 1007.0 |
| 20260505001220 | 20 | 69 | 4.8 | 6.4 | 0.00 | 0.00 | 0.00 | 33 | 1007.0 |
| 20260505000720 | 20 | 78 | 4.8 | 6.4 | 0.00 | 0.00 | 0.00 | 32 | 1007.0 |
| 20260505000220 | 20 | 37 | 6.4 | 9.7 | 0.00 | 0.00 | 0.00 | 32 | 1007.0 |
| 20260504235720 | 20 | 26 | 0.0 | 1.6 | 0.00 | 0.00 | 0.00 | 31 | 1008.0 |
| 20260504235220 | 20 | 20 | 3.2 | 4.8 | 0.00 | 0.00 | 0.00 | 31 | 1008.0 |
| 20260504234720 | 20 | 10 | 3.2 | 6.4 | 0.00 | 0.00 | 0.00 | 31 | 1007.0 |
| 20260504234220 | 20 | 111 | 0.0 | 3.2 | 0.00 | 0.00 | 0.00 | 30 | 1007.0 |
| 20260504233720 | 20 | 66 | 8.0 | 9.7 | 0.00 | 0.00 | 0.00 | 31 | 1007.0 |
| 20260504233221 | 20 | 56 | 8.0 | 11.3 | 0.00 | 0.00 | 0.00 | 32 | 1008.0 |
| 20260504232720 | 19 | 7 | 8.0 | 12.9 | 0.00 | 0.00 | 0.00 | 34 | 1008.0 |
| 20260504232220 | 19 | 15 | 14.5 | 17.7 | 0.00 | 0.00 | 0.00 | 34 | 1008.0 |
| 20260504231720 | 19 | 14 | 9.7 | 17.7 | 0.00 | 0.00 | 0.00 | 34 | 1008.0 |
| 20260504231220 | 19 | 34 | 4.8 | 6.4 | 0.00 | 0.00 | 0.00 | 34 | 1008.0 |
| 20260504230720 | 19 | 31 | 12.9 | 22.5 | 0.00 | 0.00 | 0.00 | 34 | 1008.0 |
| 20260504230220 | 19 | 40 | 16.1 | 22.5 | 0.00 | 0.00 | 0.00 | 33 | 1008.0 |
| 20260504225720 | 20 | 35 | 12.9 | 16.1 | 0.00 | 0.00 | 0.00 | 34 | 1008.0 |
| 20260504225220 | 20 | 58 | 12.9 | 16.1 | 0.00 | 0.00 | 0.00 | 32 | 1008.0 |
| 20260504224720 | 21 | 70 | 12.9 | 16.1 | 0.00 | 0.00 | 0.00 | 31 | 1008.0 |
| 20260504224221 | 22 | 57 | 4.8 | 6.4 | 0.00 | 0.00 | 0.00 | 29 | 1007.0 |
| 20260504223721 | 22 | 348 | 3.2 | 3.2 | 0.00 | 0.00 | 0.00 | 27 | 1008.0 |
| 20260504223221 | 21 | 328 | 0.0 | 3.2 | 0.00 | 0.00 | 0.00 | 28 | 1007.0 |
| 20260504222720 | 21 | 254 | 4.8 | 9.7 | 0.00 | 0.00 | 0.00 | 28 | 1007.0 |
| 20260504222220 | 21 | 276 | 8.0 | 11.3 | 0.00 | 0.00 | 0.00 | 29 | 1007.0 |
| 20260504221720 | 21 | 303 | 6.4 | 11.3 | 0.00 | 0.00 | 0.00 | 31 | 1007.0 |
| 20260504221221 | 20 | 293 | 8.0 | 12.9 | 0.00 | 0.00 | 0.00 | 32 | 1007.0 |
| 20260504220720 | 20 | 285 | 9.7 | 11.3 | 0.00 | 0.00 | 0.00 | 32 | 1007.0 |
| 20260504220221 | 20 | 278 | 12.9 | 14.5 | 0.00 | 0.00 | 0.00 | 33 | 1008.0 |
| 20260504215721 | 20 | 269 | 14.5 | 17.7 | 0.00 | 0.00 | 0.00 | 34 | 1008.0 |
| 20260504215220 | 19 | 264 | 9.7 | 16.1 | 0.00 | 0.00 | 0.00 | 35 | 1008.0 |
| 20260504214720 | 19 | 279 | 9.7 | 14.5 | 0.00 | 0.00 | 0.00 | 36 | 1008.0 |
| 20260504214220 | 19 | 261 | 14.5 | 19.3 | 0.00 | 0.00 | 0.00 | 36 | 1008.0 |
| 20260504213720 | 19 | 264 | 14.5 | 17.7 | 0.00 | 0.00 | 0.00 | 36 | 1008.0 |
| 20260504213220 | 18 | 254 | 11.3 | 17.7 | 0.00 | 0.00 | 0.00 | 37 | 1008.0 |
| 20260504212720 | 18 | 250 | 16.1 | 22.5 | 0.00 | 0.00 | 0.00 | 38 | 1008.0 |
| 20260504212221 | 18 | 265 | 14.5 | 20.9 | 0.00 | 0.00 | 0.00 | 38 | 1008.0 |
| 20260504211722 | 18 | 262 | 17.7 | 27.4 | 0.00 | 0.00 | 0.00 | 38 | 1008.0 |
| 20260504211220 | 18 | 244 | 16.1 | 25.7 | 0.00 | 0.00 | 0.00 | 37 | 1008.0 |
| 20260504210721 | 19 | 257 | 17.7 | 25.7 | 0.00 | 0.00 | 0.00 | 36 | 1008.0 |
| 20260504210220 | 19 | 242 | 12.9 | 17.7 | 0.00 | 0.00 | 0.00 | 34 | 1008.0 |
| 20260504205721 | 19 | 253 | 16.1 | 19.3 | 0.00 | 0.00 | 0.00 | 33 | 1008.0 |
| 20260504205220 | 19 | 239 | 14.5 | 20.9 | 0.00 | 0.00 | 0.00 | 33 | 1008.0 |
| 20260504204721 | 20 | 245 | 14.5 | 19.3 | 0.00 | 0.00 | 0.00 | 32 | 1008.0 |
| 20260504204220 | 20 | 246 | 12.9 | 19.3 | 0.00 | 0.00 | 0.00 | 33 | 1008.0 |
| 20260504203720 | 20 | 256 | 14.5 | 20.9 | 0.00 | 0.00 | 0.00 | 33 | 1008.0 |
| 20260504203221 | 20 | 242 | 11.3 | 17.7 | 0.00 | 0.00 | 0.00 | 33 | 1008.0 |
| 20260504202721 | 20 | 256 | 16.1 | 20.9 | 0.00 | 0.00 | 0.00 | 33 | 1008.0 |
| 20260504202220 | 21 | 270 | 16.1 | 20.9 | 0.00 | 0.00 | 0.00 | 32 | 1008.0 |
| 20260504201721 | 21 | 222 | 8.0 | 12.9 | 0.00 | 0.00 | 0.00 | 31 | 1008.0 |
| 20260504201220 | 22 | 161 | 6.4 | 9.7 | 0.00 | 0.00 | 0.00 | 27 | 1008.0 |
| 20260504200720 | 22 | 145 | 0.0 | 4.8 | 0.00 | 0.00 | 0.00 | 27 | 1008.0 |
| 20260504200220 | 22 | 341 | 3.2 | 4.8 | 0.00 | 0.00 | 0.00 | 28 | 1008.0 |
| 20260504195722 | 21 | 145 | 0.0 | 0.0 | 0.00 | 0.00 | 0.00 | 28 | 1008.0 |
| 20260504195221 | 21 | 115 | 3.2 | 6.4 | 0.00 | 0.00 | 0.00 | 28 | 1008.0 |
| 20260504194720 | 21 | 145 | 8.0 | 11.3 | 0.00 | 0.00 | 0.00 | 28 | 1008.0 |
| 20260504194221 | 21 | 157 | 3.2 | 4.8 | 0.00 | 0.00 | 0.00 | 27 | 1008.0 |
| 20260504193721 | 21 | 104 | 1.6 | 4.8 | 0.00 | 0.00 | 0.00 | 29 | 1008.0 |
| 20260504193220 | 21 | 119 | 8.0 | 16.1 | 0.00 | 0.00 | 0.00 | 28 | 1008.0 |
| 20260504192725 | 21 | 50 | 6.4 | 9.7 | 0.00 | 0.00 | 0.00 | 28 | 1008.0 |
| 20260504192221 | 21 | 218 | 3.2 | 6.4 | 0.00 | 0.00 | 0.00 | 28 | 1008.0 |
| 20260504191720 | 21 | 158 | 4.8 | 8.0 | 0.00 | 0.00 | 0.00 | 28 | 1008.0 |
| 20260504191220 | 21 | 167 | 9.7 | 14.5 | 0.00 | 0.00 | 0.00 | 29 | 1008.0 |
| 20260504190721 | 21 | 116 | 8.0 | 14.5 | 0.00 | 0.00 | 0.00 | 29 | 1009.0 |
| 20260504190221 | 21 | 117 | 6.4 | 9.7 | 0.00 | 0.00 | 0.00 | 29 | 1009.0 |
| 20260504185723 | 21 | 165 | 8.0 | 9.7 | 0.00 | 0.00 | 0.00 | 29 | 1009.0 |
| 20260504185221 | 21 | 138 | 6.4 | 12.9 | 0.00 | 0.00 | 0.00 | 30 | 1009.0 |
| 20260504184720 | 21 | 134 | 3.2 | 4.8 | 0.00 | 0.00 | 0.00 | 29 | 1009.0 |
| 20260504184222 | 21 | 128 | 9.7 | 14.5 | 0.00 | 0.00 | 0.00 | 29 | 1009.0 |
| 20260504183721 | 21 | 162 | 9.7 | 14.5 | 0.00 | 0.00 | 0.00 | 29 | 1008.0 |
| 20260504183221 | 21 | 132 | 9.7 | 12.9 | 0.00 | 0.00 | 0.00 | 29 | 1009.0 |
| 20260504182720 | 21 | 182 | 8.0 | 14.5 | 0.00 | 0.00 | 0.00 | 30 | 1009.0 |
| 20260504182222 | 21 | 146 | 11.3 | 14.5 | 0.00 | 0.00 | 0.00 | 30 | 1009.0 |
| 20260504181720 | 21 | 155 | 9.7 | 16.1 | 0.00 | 0.00 | 0.00 | 30 | 1009.0 |
| 20260504181222 | 21 | 166 | 8.0 | 14.5 | 0.00 | 0.00 | 0.00 | 30 | 1009.0 |
| 20260504180721 | 21 | 157 | 8.0 | 12.9 | 0.00 | 0.00 | 0.00 | 31 | 1009.0 |
| 20260504180221 | 21 | 144 | 11.3 | 17.7 | 0.00 | 0.00 | 0.00 | 31 | 1009.0 |
| 20260504175235 | 20 | 149 | 8.0 | 12.9 | 0.00 | 0.00 | 0.00 | 32 | 1009.0 |
| 20260504174721 | 20 | 154 | 12.9 | 17.7 | 0.00 | 0.00 | 0.00 | 33 | 1009.0 |
| 20260504174221 | 20 | 152 | 11.3 | 16.1 | 0.00 | 0.00 | 0.00 | 32 | 1009.0 |
| 20260504173724 | 20 | 173 | 12.9 | 17.7 | 0.00 | 0.00 | 0.00 | 34 | 1009.0 |
| 20260504173221 | 20 | 154 | 12.9 | 16.1 | 0.00 | 0.00 | 0.00 | 33 | 1009.0 |
| 20260504172721 | 20 | 179 | 8.0 | 14.5 | 0.00 | 0.00 | 0.00 | 33 | 1009.0 |
| 20260504172220 | 20 | 161 | 14.5 | 20.9 | 0.00 | 0.00 | 0.00 | 33 | 1009.0 |
| 20260504171721 | 20 | 159 | 11.3 | 14.5 | 0.00 | 0.00 | 0.00 | 34 | 1009.0 |
| 20260504171221 | 20 | 129 | 6.4 | 11.3 | 0.00 | 0.00 | 0.00 | 34 | 1009.0 |
| 20260504170721 | 20 | 133 | 12.9 | 16.1 | 0.00 | 0.00 | 0.00 | 34 | 1009.0 |
| 20260504170221 | 20 | 144 | 11.3 | 16.1 | 0.00 | 0.00 | 0.00 | 33 | 1009.0 |
| 20260504160220 | 17 | 150 | 9.7 | 16.1 | 0.00 | 0.00 | 0.00 | 44 | 1010.0 |
| 20260504150721 | 16 | 162 | 9.7 | 14.5 | 0.00 | 0.00 | 0.00 | 46 | 1010.0 |
| 20260504150221 | 16 | 162 | 9.7 | 12.9 | 0.00 | 0.00 | 0.00 | 46 | 1010.0 |
| 20260504141226 | 16 | 156 | 8.0 | 12.9 | 0.00 | 0.00 | 0.00 | 50 | 1010.0 |
| 20260504140722 | 15 | 141 | 6.4 | 12.9 | 0.00 | 0.00 | 0.00 | 50 | 1010.0 |
| 20260504140222 | 15 | 160 | 11.3 | 14.5 | 0.00 | 0.00 | 0.00 | 49 | 1010.0 |
| 20260504130721 | 14 | 177 | 9.7 | 11.3 | 0.00 | 0.00 | 0.00 | 50 | 1010.0 |
| 20260504130222 | 14 | 190 | 12.9 | 14.5 | 0.00 | 0.00 | 0.00 | 51 | 1010.0 |
| 20260504120221 | 14 | 160 | 8.0 | 9.7 | 0.00 | 0.00 | 0.00 | 52 | 1011.0 |